Milford, UT

12:38 AM MDT on September 26, 2017 (GMT -0600)
Milford Municipal

Weather History for KMLF - October, 2012

Change the Weather History Date:

Friday, October 5, 2012

  Actual Average Record
Temperature  
Mean Temperature 57 °F -  
Max Temperature 73 °F 72 °F 82 °F (1996)
Min Temperature 41 °F 36 °F 21 °F (2013)
Degree Days  
Heating Degree Days 8    
Growing Degree Days 7 (Base 50)    
Moisture  
Dew Point 20 °F    
Average Humidity 23    
Maximum Humidity 51    
Minimum Humidity 6    
Precipitation  
Precipitation 0.00 in - - ()
Sea Level Pressure  
Sea Level Pressure 30.00 in    
Wind  
Wind Speed 8 mph (North)    
Max Wind Speed 17 mph    
Max Gust Speed 21 mph    
Visibility 10 miles    
Events      
Averages and records for this station are not official NWS values.
T = Trace of Precipitation, MM = Missing Value Source: NWS Daily Summary

Daily Weather History Graph

Daily Weather History Graph

Search for Another Location

Airport or City:

Trip Planner

Search our weather history database for the weather conditions in past years. The results will help you decide how hot, cold, wet, or windy it might be!

Date:

Astronomy

Oct. 05, 2012 Rise Set
Actual Time 7:32 AM MDT 7:07 PM MDT
Civil Twilight 7:05 AM MDT 7:34 PM MDT
Nautical Twilight 6:34 AM MDT 8:04 PM MDT
Astronomical Twilight 6:04 AM MDT 8:35 PM MDT
Moon 10:38 PM MDT (10/5) 12:39 PM MDT (10/5)
Length of Visible Light 12h 28m
Length of Day
11h 35m
Waning Gibbous, 73% of the Moon is Illuminated
Oct 5
Waning Gibbous
Oct 8
Last Quarter
Oct 15
New
Oct 21
First Quarter
Oct 29
Full

Hourly Weather History & Observations

Time (MDT) Temp. Windchill Dew Point Humidity Pressure Visibility Wind Dir Wind Speed Gust Speed Precip Events Conditions
12:52 AM 55.9 °F - 28.0 °F 34% 29.94 in 10.0 mi SW 3.5 mph - 0.00 in   Clear
1:52 AM 52.0 °F - 28.0 °F 40% 29.94 in 10.0 mi SW 8.1 mph - N/A   Clear
2:52 AM 50.0 °F - 25.0 °F 38% 29.95 in 10.0 mi WSW 9.2 mph - N/A   Clear
3:52 AM 46.9 °F - 27.0 °F 46% 29.95 in 10.0 mi Calm Calm - N/A   Clear
4:52 AM 54.0 °F - 24.1 °F 31% 29.94 in 10.0 mi NW 5.8 mph - N/A   Clear
5:52 AM 42.1 °F 39.2 °F 25.0 °F 51% 30.00 in 10.0 mi NNE 4.6 mph - N/A   Clear
6:52 AM 48.9 °F - 19.9 °F 32% 30.01 in 10.0 mi North 16.1 mph - N/A   Clear
7:52 AM 42.1 °F 37.1 °F 21.0 °F 43% 30.06 in 10.0 mi NE 8.1 mph - N/A   Clear
8:52 AM 53.1 °F - 21.0 °F 29% 30.06 in 10.0 mi North 17.3 mph - N/A   Clear
9:52 AM 57.0 °F - 21.0 °F 25% 30.07 in 10.0 mi North 15.0 mph - N/A   Clear
10:52 AM 60.1 °F - 19.0 °F 20% 30.07 in 10.0 mi North 12.7 mph - N/A   Clear
11:52 AM 62.1 °F - 18.0 °F 18% 30.08 in 10.0 mi North 9.2 mph - N/A   Clear
12:52 PM 66.0 °F - 18.0 °F 16% 30.05 in 10.0 mi North 11.5 mph - N/A   Clear
1:52 PM 69.1 °F - 18.0 °F 14% 30.02 in 10.0 mi North 10.4 mph 16.1 mph N/A   Clear
2:52 PM 72.0 °F - 18.0 °F 13% 29.99 in 10.0 mi NE 10.4 mph - N/A   Clear
3:52 PM 71.1 °F - 18.0 °F 13% 29.99 in 10.0 mi NE 5.8 mph 20.7 mph N/A   Clear
4:52 PM 71.1 °F - 19.0 °F 14% 29.96 in 10.0 mi Calm Calm - N/A   Clear
5:52 PM 70.0 °F - 19.0 °F 14% 29.97 in 10.0 mi North 8.1 mph - N/A   Clear
6:52 PM 64.9 °F - 19.0 °F 17% 29.96 in 10.0 mi NNW 9.2 mph - N/A   Clear
7:52 PM 61.0 °F - 15.1 °F 17% 29.99 in 10.0 mi NNW 12.7 mph - N/A   Clear
8:52 PM 57.9 °F - 14.0 °F 18% 29.98 in 10.0 mi North 12.7 mph - N/A   Clear
9:52 PM 55.9 °F - 15.1 °F 20% 29.98 in 10.0 mi NNW 13.8 mph - N/A   Clear
10:52 PM 55.0 °F - 14.0 °F 20% 29.99 in 10.0 mi NNW 15.0 mph - N/A   Clear
11:52 PM 52.0 °F - 12.0 °F 20% 30.01 in 10.0 mi North 6.9 mph - N/A   Clear